Location: Rancho Del Sol Observatory
(38.7214°N, 120.6350°W)
Time: 09:36:19
(UTC-08:00)

Vanguard 3 - All Passes

Search period start: 29 January 2020 00:00
Search period end: 08 February 2020 00:00
Orbit: 507 x 3264 km, 33.4° (Epoch: 29 January)

Date Brightness Start Highest point End Pass type
(mag) Time Alt. Az. Time Alt. Az. Time Alt. Az.
29 Jan - 13:25:18 10° S 13:37:32 28° SE 13:52:21 10° E daylight
29 Jan - 15:34:41 10° SW 15:51:47 57° SSE 16:10:24 10° E daylight
29 Jan - 17:48:38 10° WSW 18:08:24 74° S 18:25:16 10° E visible
29 Jan - 20:05:19 10° W 20:24:45 65° SSW 20:38:02 10° ESE visible
29 Jan - 22:23:49 10° W 22:38:15 35° SW 22:47:49 10° SSE visible
30 Jan - 12:15:25 10° SSE 12:22:50 15° SE 12:31:26 10° E daylight
30 Jan - 14:20:45 10° SSW 14:35:29 44° SE 14:53:28 10° E daylight
30 Jan - 16:32:43 10° WSW 16:51:10 69° SSE 17:09:42 10° E daylight
30 Jan - 18:48:07 10° W 19:08:08 73° S 19:23:45 10° ESE visible
30 Jan - 21:05:33 10° W 21:23:22 50° SSW 21:35:15 10° SE visible
30 Jan - 23:26:15 10° W 23:35:12 18° SW 23:42:03 10° SSW visible
31 Jan - 13:08:08 10° S 13:20:04 30° SE 13:35:22 10° E daylight
31 Jan - 15:17:48 10° SW 15:34:14 60° SSE 15:53:25 10° E daylight
31 Jan - 17:31:35 10° WSW 17:50:59 75° S 18:08:41 10° E visible
31 Jan - 19:47:56 10° W 20:07:30 63° SSW 20:21:41 10° SE visible
31 Jan - 22:06:27 10° W 22:21:07 33° SW 22:31:19 10° SSE visible
01 Feb - 11:57:39 10° SSE 12:05:30 17° SE 12:15:03 10° E daylight
01 Feb - 14:03:55 10° SW 14:18:00 47° SSE 14:36:18 10° E daylight
01 Feb - 16:15:53 10° WSW 16:33:42 71° SSE 16:52:51 10° E daylight
01 Feb - 18:30:57 10° W 18:50:46 72° S 19:07:15 10° ESE visible
01 Feb - 20:48:07 10° W 21:06:06 48° SSW 21:18:48 10° SE visible
01 Feb - 23:09:29 10° W 23:18:05 17° SW 23:24:58 10° SSW visible
02 Feb - 12:51:13 10° SSW 13:02:40 33° SE 13:18:11 10° E daylight
02 Feb - 15:01:05 10° SW 15:16:46 63° SSE 15:36:18 10° E daylight
02 Feb - 17:14:40 10° W 17:33:32 75° S 17:51:58 10° E visible
02 Feb - 19:30:39 10° W 19:50:08 61° SSW 20:05:11 10° SE visible
02 Feb - 21:49:09 10° W 22:03:51 30° SW 22:14:36 10° S visible
03 Feb - 11:40:20 10° SSE 11:48:14 19° SE 11:58:21 10° E daylight
03 Feb - 13:47:15 10° SW 14:00:35 50° SSE 14:19:00 10° E daylight
03 Feb - 15:59:11 10° WSW 16:16:14 72° S 16:35:53 10° E daylight
03 Feb - 18:13:54 10° W 18:33:20 70° SSW 18:50:37 10° ESE visible
03 Feb - 20:30:47 10° W 20:48:44 45° SW 21:02:11 10° SSE visible
03 Feb - 22:53:00 10° W 23:00:53 15° SW 23:07:29 10° SSW visible
04 Feb - 12:34:31 10° SSW 12:45:21 35° SE 13:00:53 10° E daylight
04 Feb - 14:44:33 10° WSW 14:59:22 65° SSE 15:19:04 10° E daylight
04 Feb - 16:57:53 10° W 17:16:05 74° S 17:35:08 10° ESE daylight
04 Feb - 19:13:29 10° W 19:32:40 58° SSW 19:48:32 10° SE visible
04 Feb - 21:32:00 10° W 21:46:30 28° SW 21:57:42 10° S visible
05 Feb - 11:23:20 10° S 11:31:05 21° SE 11:41:27 10° E daylight
05 Feb - 13:30:47 10° SW 13:43:17 53° SSE 14:01:36 10° E daylight
05 Feb - 15:42:38 10° WSW 15:58:50 73° S 16:18:48 10° E daylight
05 Feb - 17:56:59 10° W 18:15:51 68° SSW 18:33:50 10° ESE visible
05 Feb - 20:13:35 10° W 20:31:16 42° SW 20:45:23 10° SSE visible
05 Feb - 22:36:58 10° WSW 22:43:36 13° SW 22:49:27 10° SSW visible
06 Feb - 12:18:00 10° SSW 12:28:10 37° SE 12:43:30 10° E daylight
06 Feb - 14:28:08 10° WSW 14:42:04 67° SSE 15:01:45 10° E daylight
06 Feb - 16:41:14 10° W 16:58:38 73° S 17:18:09 10° ESE daylight
06 Feb - 18:56:25 10° W 19:15:09 55° SSW 19:31:42 10° SE visible
06 Feb - 21:15:01 10° W 21:29:04 26° SW 21:40:32 10° S visible
07 Feb - 11:06:35 10° S 11:14:01 22° SE 11:24:23 10° E daylight
07 Feb - 13:14:28 10° SW 13:26:06 55° SSE 13:44:08 10° E daylight
07 Feb - 15:26:12 10° WSW 15:41:31 74° S 16:01:35 10° E daylight
07 Feb - 17:40:10 10° W 17:58:21 65° SSW 18:16:54 10° ESE visible
07 Feb - 19:56:31 10° W 20:13:44 39° SW 20:28:22 10° SSE visible
07 Feb - 22:21:55 10° WSW 22:26:16 11° SW 22:30:20 10° SW visible
